Meteo Giornale » Osservazioni meteo Stati Uniti (USA) » Worcester

ore: 11:54 - Osservazioni Meteo Worcester
Lat. 42° 16' N Lon. 71° 52' W Alt. 307 metri s.l.m.

poco_nuvoloso

21 °C

Poco Nuvoloso

Temp. 24 Ore

16 °C

24 °C

Nord

5.5 Km/h

Dew point 11 °C

Umidità 52 %

Visibilità  10 Km

Il sole sorge alle ore 06:11

Il sole tramonta alle ore 19:23

Data e Ora Cielo e Fenomeni T °C DP °C Um. % Pres. hPa Vis. km Vento km/h
Oggi h: 11:54 poco_nuvoloso Poco Nuvoloso 21 11 52 1021 10 N 5.5
Oggi h: 10:54 poco_nuvoloso Poco Nuvoloso 20 11 56 1021 10 N 5.5
Oggi h: 09:54 poco_nuvoloso Poco Nuvoloso 19 12 63 1021 10 E 9.3
Oggi h: 08:54 sereno Sereno 18 13 72 1021 10 E/NE 9.3
Oggi h: 07:54 sereno Sereno 18 14 77 1021 10 E/NE 9.3
Oggi h: 06:54 sereno Sereno 17 14 82 1020 10 N 7.4
Oggi h: 05:54 sereno Sereno 16 14 87 1020 10 NO 9.3
Oggi h: 04:54 sereno Sereno 16 14 87 1019 10 O/NO 9.3
Oggi h: 03:54 sereno Sereno 16 14 87 1019 10 N 0
Oggi h: 02:54 sereno Sereno 18 14 77 1019 10 N/NO 14.8
Oggi h: 01:54 sereno Sereno 17 16 93 1019 10 NO 18.5
Oggi h: 00:54 sereno Sereno 18 16 88 1018 10 O/NO 16.7
Ieri h: 23:54 nuvoloso Nuvoloso 18 17 93 1018 10 O/NO 20.3
Ieri h: 22:54 coperto Coperto 18 17 93 1018 10 O 11.1
Ieri h: 22:37 coperto_pioggia Pioggia 18 17 93 1018 11 O/NO 18.5
Ieri h: 22:27 coperto_pioggia Pioggia 19 18 93 1018 14 NO 25.9
Ieri h: 22:14 coperto Coperto 19 19 100 1018 10 O 11.1
Ieri h: 22:01 coperto Coperto 19 18 93 1018 10 O 14.8
Ieri h: 21:54 coperto_pioggia Pioggia Foschia 19 18 93 1018 10 SO 14.8
Ieri h: 21:46 coperto_pioggia Pioggia Foschia 19 18 93 1018 5 O 16.7
Ieri h: 21:41 coperto_pioggia Pioggia Foschia 19 18 93 1018 5 O 20.3
Ieri h: 20:54 coperto Coperto 21 17 77 1018 10 O/SO 14.8
Ieri h: 19:54 coperto Coperto 21 17 77 1017 10 O/SO 22.2
Ieri h: 18:54 nuvoloso Nuvoloso 22 16 68 1017 10 SO 22.2
Ieri h: 17:54 molto_nuvoloso Molto Nuvoloso 23 16 64 1018 10 SO 16.7
Ieri h: 16:54 coperto Coperto 23 15 60 1018 10 SO 16.7
Ieri h: 15:54 molto_nuvoloso Molto Nuvoloso 23 14 56 1018 10 S/SO 7.4
Ieri h: 14:54 sereno Sereno 24 13 50 1019 10 SO 22.2
Ieri h: 13:54 sereno Sereno 23 14 56 1019 10 O/SO 16.7
Ieri h: 12:54 sereno Sereno 23 13 53 1020 10 O 13